Retour au catalogue

THORAD DELTA 1 DEB

ActifSSO
NORAD 8185·DEBRIS·🇺🇸 United States

Lancé Nov 15, 1974 depuis Vandenberg Space Force Base

Loading…

Prochains Passages (prochaines 24 heures)

TLE

FraisSource: Space-Track

Époque: Sep 14, 2026, 06:10 UTC

1 08185U 74089BB  26257.25746544 -.00000005  00000-0  27507-3 0  9999
2 08185 101.5308 172.3906 0070057 346.3107 168.6984 12.40526116345803

Suivez THORAD DELTA 1 DEB en temps réel avec AllMySat

Download on the App Store